Location: Peebles
(55.6412°N, 3.1714°W)
Time: 03:09:20
(UTC+01:00)

FENGYUN 1C DEB - Pass Details

Date: 12 July 2022
Orbit: 835 x 1174 km, 99.6° (Epoch: 12 August)

Event Time Altitude Azimuth Distance (km) Brightness Sun altitude
Rises 23:36:29 0° 203° (SSW) 3,832 ? -9.5°
Reaches altitude 10° 23:39:38 10° 217° (SW) 2,825 ? -9.7°
Maximum altitude 23:44:37 24° 269° (W) 1,910 ? -10.0°
Drops below altitude 10° 23:49:21 10° 322° (NW) 2,656 ? -10.2°
Sets 23:52:14 0° 336° (NNW) 3,552 ? -10.4°
